• în Republica Moldova
  • Lista ţărilor
  • Pe 7 zile
  • Temperatura apei
  • Hartă satelitară
  • Meteo pe hartă
  • Widget-uri
  • user-avatar
    Intrare

    Meteo pe oră la Uige

    Astăzi, 23 Aprilie, Duminică

    Timp Temperatura Precipitaţii Vânt Presiune Umiditate
    00:00 +22°C° 0 mm 1 m/s 691 mmHg 98%
    01:00 +22°C° 0 mm 1 m/s 690 mmHg 98%
    02:00 +22°C° 0 mm 1 m/s 690 mmHg 98%
    03:00 +22°C° 0 mm 1 m/s 690 mmHg 98%
    04:00 +21°C° 0 mm 1 m/s 690 mmHg 98%
    05:00 +22°C° 0 mm 1 m/s 691 mmHg 98%
    06:00 +22°C° 0 mm 1 m/s 691 mmHg 97%
    07:00 +23°C° 0 mm 1 m/s 692 mmHg 95%
    08:00 +25°C° 0,3 mm 1 m/s 692 mmHg 88%
    09:00 +26°C° 0,3 mm 1 m/s 692 mmHg 80%
    10:00 +28°C° 0,3 mm 1 m/s 693 mmHg 72%
    11:00 +29°C° 0,6 mm 1 m/s 692 mmHg 70%
    12:00 +29°C° 0,6 mm 1 m/s 692 mmHg 68%
    13:00 +30°C° 0,6 mm 1 m/s 692 mmHg 66%
    14:00 +30°C° 0,7 mm 2 m/s 691 mmHg 69%
    15:00 +29°C° 0,7 mm 2 m/s 691 mmHg 72%
    16:00 +29°C° 0,7 mm 2 m/s 690 mmHg 75%
    17:00 +27°C° 0,1 mm 2 m/s 690 mmHg 81%
    18:00 +25°C° 0,1 mm 1 m/s 690 mmHg 86%
    19:00 +23°C° 0,1 mm 1 m/s 690 mmHg 92%
    20:00 +23°C° 0 mm 1 m/s 691 mmHg 93%
    21:00 +23°C° 0 mm 1 m/s 691 mmHg 94%
    22:00 +22°C° 0 mm 1 m/s 692 mmHg 95%
    23:00 +22°C° 0,6 mm 1 m/s 692 mmHg 96%

    Mâine, 24 Aprilie, Luni

    Timp Temperatura Precipitaţii Vânt Presiune Umiditate
    00:00 +22°C° 0,6 mm 1 m/s 692 mmHg 96%
    01:00 +21°C° 0,6 mm 1 m/s 692 mmHg 96%
    02:00 +21°C° 0,3 mm 1 m/s 692 mmHg 97%
    03:00 +21°C° 0,3 mm 1 m/s 691 mmHg 97%
    04:00 +18°C° 0,3 mm 0 m/s 691 mmHg 97%
    05:00 +19°C° 0 mm 0 m/s 691 mmHg 95%
    06:00 +22°C° 0 mm 1 m/s 692 mmHg 92%
    07:00 +22°C° 0 mm 1 m/s 692 mmHg 90%
    08:00 +24°C° 0 mm 1 m/s 693 mmHg 80%
    09:00 +27°C° 0 mm 1 m/s 693 mmHg 70%
    10:00 +29°C° 0 mm 1 m/s 694 mmHg 60%
    11:00 +30°C° 0 mm 1 m/s 694 mmHg 55%
    12:00 +30°C° 0 mm 1 m/s 693 mmHg 50%
    13:00 +31°C° 0 mm 2 m/s 693 mmHg 45%
    14:00 +30°C° 0,1 mm 2 m/s 692 mmHg 49%
    15:00 +30°C° 0,1 mm 2 m/s 692 mmHg 52%
    16:00 +29°C° 0,1 mm 2 m/s 691 mmHg 55%
    17:00 +27°C° 0 mm 2 m/s 691 mmHg 59%
    18:00 +25°C° 0 mm 2 m/s 691 mmHg 63%
    19:00 +23°C° 0 mm 2 m/s 691 mmHg 67%
    20:00 +23°C° 0 mm 2 m/s 691 mmHg 66%
    21:00 +21°C° 0 mm 2 m/s 691 mmHg 66%
    22:00 +21°C° 0 mm 1 m/s 692 mmHg 66%
    23:00 +20°C° 0 mm 2 m/s 691 mmHg 64%

    Poimâine, 25 Aprilie, Marţi

    Timp Temperatura Precipitaţii Vânt Presiune Umiditate
    00:00 +20°C° 0 mm 2 m/s 691 mmHg 63%
    01:00 +20°C° 0 mm 2 m/s 691 mmHg 61%
    02:00 +19°C° 0 mm 2 m/s 691 mmHg 62%
    03:00 +19°C° 0 mm 2 m/s 690 mmHg 63%
    04:00 +19°C° 0 mm 2 m/s 690 mmHg 63%
    05:00 +19°C° 0 mm 2 m/s 690 mmHg 65%
    06:00 +19°C° 0 mm 1 m/s 691 mmHg 67%
    07:00 +19°C° 0 mm 1 m/s 691 mmHg 69%
    08:00 +22°C° 0 mm 1 m/s 692 mmHg 59%
    09:00 +26°C° 0 mm 1 m/s 693 mmHg 48%
    10:00 +29°C° 0 mm 1 m/s 694 mmHg 37%
    11:00 +30°C° 0 mm 1 m/s 693 mmHg 34%
    12:00 +31°C° 0 mm 2 m/s 692 mmHg 30%
    13:00 +31°C° 0 mm 2 m/s 692 mmHg 27%
    14:00 +31°C° 0 mm 2 m/s 691 mmHg 31%
    15:00 +31°C° 0 mm 2 m/s 691 mmHg 34%
    16:00 +30°C° 0 mm 2 m/s 690 mmHg 38%
    17:00 +27°C° 0 mm 2 m/s 690 mmHg 44%
    18:00 +24°C° 0 mm 2 m/s 690 mmHg 50%
    19:00 +21°C° 0 mm 1 m/s 690 mmHg 56%
    20:00 +20°C° 0 mm 1 m/s 690 mmHg 57%
    21:00 +20°C° 0 mm 1 m/s 691 mmHg 57%
    22:00 +19°C° 0 mm 1 m/s 691 mmHg 58%
    23:00 +19°C° 0 mm 1 m/s 691 mmHg 58%

    26 Aprilie, Miercuri

    Timp Temperatura Precipitaţii Vânt Presiune Umiditate
    00:00 +18°C° 0 mm 1 m/s 691 mmHg 58%
    01:00 +18°C° 0 mm 1 m/s 690 mmHg 58%
    02:00 +18°C° 0 mm 1 m/s 690 mmHg 61%
    03:00 +16°C° 0 mm 1 m/s 690 mmHg 64%
    04:00 +16°C° 0 mm 1 m/s 689 mmHg 68%
    05:00 +18°C° 0 mm 1 m/s 690 mmHg 68%
    06:00 +18°C° 0 mm 1 m/s 691 mmHg 68%
    07:00 +19°C° 0 mm 1 m/s 691 mmHg 69%
    08:00 +22°C° 0 mm 1 m/s 692 mmHg 60%
    09:00 +25°C° 0 mm 1 m/s 693 mmHg 51%
    10:00 +28°C° 0 mm 1 m/s 693 mmHg 42%
    11:00 +30°C° 0 mm 1 m/s 693 mmHg 39%
    12:00 +31°C° 0 mm 1 m/s 692 mmHg 37%
    13:00 +32°C° 0 mm 1 m/s 692 mmHg 34%
    14:00 +32°C° 0 mm 1 m/s 691 mmHg 38%
    15:00 +31°C° 0 mm 1 m/s 690 mmHg 42%
    16:00 +31°C° 0 mm 1 m/s 690 mmHg 46%
    17:00 +29°C° 0 mm 1 m/s 690 mmHg 53%
    18:00 +26°C° 0 mm 1 m/s 690 mmHg 59%
    19:00 +24°C° 0 mm 1 m/s 690 mmHg 65%
    20:00 +23°C° 0 mm 1 m/s 690 mmHg 68%
    21:00 +22°C° 0 mm 1 m/s 691 mmHg 71%
    22:00 +22°C° 0 mm 1 m/s 691 mmHg 73%
    23:00 +21°C° 0 mm 1 m/s 691 mmHg 75%

    27 Aprilie, Joi

    Timp Temperatura Precipitaţii Vânt Presiune Umiditate
    00:00 +21°C° 0 mm 1 m/s 690 mmHg 77%
    01:00 +18°C° 0 mm 0 m/s 690 mmHg 79%
    02:00 +18°C° 0 mm 0 m/s 690 mmHg 80%
    03:00 +17°C° 0 mm 0 m/s 690 mmHg 82%
    04:00 +17°C° 0 mm 0 m/s 689 mmHg 83%
    05:00 +20°C° 0,1 mm 1 m/s 690 mmHg 80%
    06:00 +21°C° 0,1 mm 1 m/s 691 mmHg 78%
    07:00 +22°C° 0,1 mm 1 m/s 692 mmHg 75%
    08:00 +25°C° 0 mm 1 m/s 692 mmHg 69%
    09:00 +27°C° 0 mm 1 m/s 693 mmHg 63%
    10:00 +29°C° 0 mm 2 m/s 694 mmHg 57%
    11:00 +29°C° 0,2 mm 2 m/s 693 mmHg 57%
    12:00 +30°C° 0,2 mm 2 m/s 692 mmHg 56%
    13:00 +31°C° 0,2 mm 2 m/s 691 mmHg 56%
    14:00 +30°C° 1,1 mm 2 m/s 691 mmHg 61%
    15:00 +29°C° 1,1 mm 2 m/s 690 mmHg 66%
    16:00 +29°C° 1,1 mm 1 m/s 690 mmHg 72%
    17:00 +27°C° 0,5 mm 1 m/s 690 mmHg 79%
    18:00 +25°C° 0,5 mm 1 m/s 690 mmHg 86%
    19:00 +21°C° 0,5 mm 0 m/s 690 mmHg 93%
    20:00 +20°C° 0,3 mm 0 m/s 691 mmHg 94%
    21:00 +22°C° 0,3 mm 1 m/s 691 mmHg 94%
    22:00 +22°C° 0,3 mm 1 m/s 691 mmHg 94%
    23:00 +22°C° 1,3 mm 1 m/s 691 mmHg 95%

    28 Aprilie, Vineri

    Timp Temperatura Precipitaţii Vânt Presiune Umiditate
    00:00 +22°C° 1,3 mm 1 m/s 691 mmHg 95%
    01:00 +22°C° 1,3 mm 1 m/s 691 mmHg 96%
    02:00 +22°C° 0,6 mm 1 m/s 691 mmHg 96%
    03:00 +22°C° 0,6 mm 1 m/s 690 mmHg 96%
    04:00 +19°C° 0,6 mm 0 m/s 690 mmHg 97%
    05:00 +22°C° 0,4 mm 1 m/s 691 mmHg 95%
    06:00 +22°C° 0,4 mm 1 m/s 691 mmHg 94%
    07:00 +23°C° 0,4 mm 1 m/s 692 mmHg 93%
    08:00 +24°C° 0,2 mm 1 m/s 692 mmHg 87%
    09:00 +26°C° 0,2 mm 2 m/s 693 mmHg 80%
    10:00 +28°C° 0,2 mm 2 m/s 693 mmHg 74%
    11:00 +29°C° 0,3 mm 2 m/s 693 mmHg 69%
    12:00 +30°C° 0,3 mm 2 m/s 692 mmHg 65%
    13:00 +31°C° 0,3 mm 2 m/s 691 mmHg 60%
    14:00 +30°C° 0,4 mm 2 m/s 691 mmHg 64%
    15:00 +30°C° 0,4 mm 2 m/s 690 mmHg 67%
    16:00 +30°C° 0,4 mm 1 m/s 690 mmHg 71%
    17:00 +28°C° 0,6 mm 1 m/s 690 mmHg 77%
    18:00 +26°C° 0,6 mm 1 m/s 691 mmHg 83%
    19:00 +24°C° 0,6 mm 1 m/s 691 mmHg 89%
    20:00 +24°C° 0,9 mm 1 m/s 691 mmHg 91%
    21:00 +23°C° 0,9 mm 1 m/s 691 mmHg 92%
    22:00 +23°C° 0,9 mm 1 m/s 692 mmHg 93%
    23:00 +23°C° 1,1 mm 1 m/s 691 mmHg 94%
    Arată mai mult